GW7791 Weather Reports


Display with metric or nautical units.
time (UTC)temp
F
wind
direction
speed
MPH
gust
MPH
rain 1hr
in
rain 24hr
in
rain mn
in
humidity
%
barometer
mb
20260906090347 71 313 0.0 0.0 0.00 0.00 0.00 95 1011.3
20260906085842 71 313 0.0 0.0 0.00 0.00 0.00 95 1011.4
20260906085341 71 313 0.0 0.0 0.00 0.00 0.00 96 1011.2
20260906084836 71 313 0.0 0.0 0.00 0.00 0.00 97 1011.2
20260906084336 71 313 0.0 0.0 0.00 0.00 0.00 97 1011.3
20260906083831 71 313 0.0 0.0 0.00 0.00 0.00 97 1011.3
20260906083327 71 313 0.0 0.0 0.00 0.00 0.00 98 1011.2
20260906082826 71 313 0.0 0.0 0.00 0.00 0.00 98 1011.3
20260906082321 71 313 0.0 0.0 0.00 0.00 0.00 98 1011.2
20260906081817 71 313 0.0 0.0 0.00 0.00 0.00 98 1011.3
20260906081313 71 313 0.0 0.0 0.00 0.00 0.00 97 1011.2
20260906080809 71 313 0.0 0.0 0.00 0.00 0.00 97 1011.1
20260906080305 71 313 0.0 0.0 0.00 0.00 0.00 97 1011.2
20260906075804 71 313 0.0 0.0 0.00 0.00 0.00 97 1011.2
20260906075306 71 313 0.0 0.0 0.00 0.00 0.00 96 1011.1
20260906074759 72 313 0.0 0.0 0.00 0.00 0.00 96 1010.9
20260906074259 72 313 0.0 0.0 0.00 0.00 0.00 95 1010.9
20260906073758 72 313 0.0 0.0 0.00 0.00 0.00 95 1011.1
20260906073253 72 313 0.0 0.0 0.00 0.00 0.00 94 1010.9
20260906072749 73 313 0.0 0.0 0.00 0.00 0.00 94 1010.9
20260906072244 73 313 1.0 1.0 0.00 0.00 0.00 94 1011.1
20260906071741 73 313 0.0 0.0 0.00 0.00 0.00 93 1011.1
20260906071240 73 313 0.0 0.0 0.00 0.00 0.00 92 1011.2
20260906070737 73 313 0.0 0.0 0.00 0.00 0.00 91 1011.2
20260906070233 73 313 0.0 0.0 0.00 0.00 0.00 91 1011.1
20260906065732 73 313 0.0 0.0 0.00 0.00 0.00 90 1011.2
20260906065227 73 313 0.0 0.0 0.00 0.00 0.00 89 1011.3
20260906064723 74 313 0.0 0.0 0.00 0.00 0.00 89 1011.3
20260906064218 74 313 0.0 0.0 0.00 0.00 0.00 89 1011.3
20260906063713 74 313 0.0 0.0 0.00 0.00 0.00 87 1011.2
20260906063209 74 313 0.0 0.0 0.00 0.00 0.00 87 1011.3
20260906062705 74 313 0.0 0.0 0.00 0.00 0.00 87 1011.3
20260906062203 75 313 0.0 0.0 0.00 0.00 0.00 87 1011.3
20260906061659 75 313 0.0 0.0 0.00 0.00 0.00 87 1011.2
20260906061155 75 314 0.0 0.0 0.00 0.00 0.00 87 1011.3
20260906060651 75 320 0.0 0.0 0.00 0.00 0.00 87 1011.3
20260906060148 75 322 0.0 0.0 0.00 0.00 0.00 88 1011.3
20260906055643 75 248 0.0 0.0 0.00 0.00 0.00 90 1011.5
20260906055138 74 221 0.0 0.0 0.00 0.00 0.00 92 1011.5
20260906054634 74 221 0.0 0.0 0.00 0.00 0.00 93 1011.5
20260906054128 74 221 0.0 0.0 0.00 0.00 0.00 94 1011.7
20260906053626 73 221 1.0 1.0 0.00 0.00 0.00 97 1011.7
20260906053126 73 221 0.0 0.0 0.00 0.00 0.00 98 1011.9
20260906052621 73 221 0.0 0.0 0.00 0.00 0.00 97 1012.0
20260906052118 73 221 0.0 0.0 0.00 0.00 0.00 97 1011.9
20260906051614 73 221 0.0 0.0 0.00 0.00 0.00 97 1011.9
20260906051109 72 221 0.0 0.0 0.00 0.00 0.00 97 1011.9
20260906050604 72 221 0.0 0.0 0.00 0.00 0.00 97 1012.1
20260906050059 73 221 0.0 0.0 0.00 0.00 0.00 97 1012.2
20260906045557 73 221 0.0 0.0 0.00 0.00 0.00 96 1012.2
20260906045053 73 221 0.0 0.0 0.00 0.00 0.00 96 1012.2
20260906044548 73 221 0.0 0.0 0.00 0.00 0.00 95 1012.4
20260906044043 73 221 0.0 0.0 0.00 0.00 0.00 94 1012.2
20260906043539 74 221 0.0 0.0 0.00 0.00 0.00 94 1012.2
20260906043036 74 222 1.0 1.0 0.00 0.00 0.00 94 1012.4
20260906042534 74 221 0.0 0.0 0.00 0.00 0.00 94 1012.5
20260906042029 74 221 0.0 0.0 0.00 0.00 0.00 94 1012.3
20260906041525 74 221 0.0 0.0 0.00 0.00 0.00 95 1012.3
20260906041025 74 221 0.0 0.0 0.00 0.00 0.00 94 1012.4
20260906040520 74 221 0.0 0.0 0.00 0.00 0.00 94 1012.5
20260906040016 74 221 1.0 1.0 0.00 0.43 0.43 94 1012.4
20260906035511 74 221 0.0 0.0 0.00 0.43 0.43 95 1012.4
20260906035007 74 221 0.0 0.0 0.00 0.43 0.43 96 1012.4
20260906034506 74 221 0.0 0.0 0.00 0.43 0.43 96 1012.4
20260906034001 74 221 1.0 1.0 0.00 0.43 0.43 96 1012.4
20260906033456 74 221 0.0 0.0 0.00 0.43 0.43 97 1012.2
20260906032952 74 221 0.0 0.0 0.00 0.43 0.43 97 1012.5
20260906032449 73 221 0.0 0.0 0.00 0.43 0.43 98 1012.6
20260906031948 73 221 0.0 0.0 0.00 0.43 0.43 98 1012.6
20260906031444 73 221 0.0 0.0 0.00 0.43 0.43 98 1012.5
20260906030939 73 221 0.0 0.0 0.00 0.43 0.43 98 1012.5
20260906030433 73 221 0.0 0.0 0.00 0.43 0.43 98 1012.3
20260906025928 73 221 0.0 0.0 0.00 0.43 0.43 98 1012.4
20260906025422 73 221 0.0 0.0 0.00 0.43 0.43 98 1012.4
20260906024921 73 221 0.0 0.0 0.00 0.43 0.43 98 1012.5
20260906024420 73 221 0.0 0.0 0.00 0.43 0.43 98 1012.5
20260906023916 73 221 0.0 0.0 0.00 0.43 0.43 98 1012.5
20260906023412 73 221 0.0 0.0 0.00 0.43 0.43 98 1012.5
20260906022912 73 221 0.0 0.0 0.00 0.43 0.43 97 1012.2
20260906022407 74 221 1.0 1.0 0.00 0.43 0.43 97 1012.6
20260906021903 74 221 0.0 0.0 0.00 0.43 0.43 97 1012.4
20260906021402 74 221 0.0 0.0 0.00 0.43 0.43 98 1012.3
20260906020857 74 221 0.0 0.0 0.00 0.43 0.43 98 1012.2
20260906020357 74 221 0.0 0.0 0.00 0.43 0.43 99 1012.2
20260906015852 74 221 0.0 0.0 0.00 0.43 0.43 99 1012.2
20260906015351 74 221 0.0 0.0 0.00 0.43 0.43 98 1012.2
20260906014851 73 221 0.0 0.0 0.00 0.43 0.43 98 1012.0
20260906014351 73 221 0.0 0.0 0.00 0.43 0.43 98 1012.1
20260906013847 74 221 0.0 0.0 0.00 0.43 0.43 98 1012.3
20260906013342 74 221 0.0 0.0 0.00 0.43 0.43 98 1012.3
20260906012838 74 221 0.0 0.0 0.00 0.43 0.43 97 1012.4
20260906012332 74 221 0.0 0.0 0.00 0.43 0.43 97 1012.0
20260906011832 74 221 0.0 0.0 0.00 0.43 0.43 97 1011.8
20260906011327 74 221 0.0 0.0 0.00 0.43 0.43 97 1011.8
20260906010823 74 221 0.0 1.0 0.00 0.43 0.43 97 1012.0
20260906010319 74 221 0.0 0.0 0.00 0.43 0.43 97 1012.0
20260906005814 74 221 0.0 0.0 0.00 0.43 0.43 97 1011.7
20260906005313 74 221 0.0 0.0 0.00 0.43 0.43 97 1011.9
20260906004812 74 221 0.0 0.0 0.00 0.43 0.43 97 1011.7
20260906004312 74 221 0.0 0.0 0.00 0.43 0.43 97 1011.5
20260906003807 74 221 0.0 0.0 0.00 0.43 0.43 97 1011.6
20260906003303 74 221 0.0 0.0 0.00 0.43 0.43 96 1011.6
20260906002759 74 221 0.0 0.0 0.00 0.43 0.43 96 1011.4
20260906002257 75 221 0.0 0.0 0.00 0.43 0.43 96 1011.5
20260906001753 75 221 0.0 0.0 0.00 0.43 0.43 96 1011.5
20260906001248 75 221 0.0 0.0 0.00 0.43 0.43 95 1011.5
20260906000744 75 221 0.0 0.0 0.00 0.43 0.43 94 1011.4
20260906000244 75 221 0.0 0.0 0.00 0.43 0.43 94 1011.3
20260905235739 75 221 0.0 0.0 0.00 0.43 0.43 94 1011.1
20260905235238 76 221 0.0 0.0 0.00 0.43 0.43 93 1011.2
20260905234734 76 221 0.0 0.0 0.00 0.43 0.43 93 1011.1
20260905234229 76 221 0.0 0.0 0.00 0.43 0.43 93 1011.2
20260905233725 76 221 0.0 0.0 0.00 0.43 0.43 92 1011.4
20260905233224 77 221 0.0 0.0 0.00 0.43 0.43 90 1011.2
20260905232719 77 221 0.0 0.0 0.00 0.43 0.43 90 1011.2
20260905232214 77 221 0.0 0.0 0.00 0.43 0.43 89 1011.3
20260905231710 77 221 1.0 0.0 0.00 0.43 0.43 89 1011.1
20260905231206 78 221 1.0 1.0 0.00 0.43 0.43 88 1011.2
20260905230701 78 221 0.0 0.0 0.00 0.43 0.43 86 1011.3
20260905230159 78 221 0.0 0.0 0.00 0.43 0.43 87 1011.4
20260905225659 78 221 0.0 0.0 0.00 0.43 0.43 86 1011.2
20260905225154 78 221 0.0 0.0 0.00 0.43 0.43 85 1011.2
20260905224653 78 221 0.0 0.0 0.00 0.43 0.43 86 1011.2
20260905224148 78 222 0.0 0.0 0.00 0.43 0.43 86 1010.9
20260905223645 78 222 0.0 0.0 0.00 0.43 0.43 86 1010.8
20260905223141 78 222 0.0 0.0 0.00 0.43 0.43 86 1011.0
20260905222637 77 222 0.0 0.0 0.00 0.43 0.43 87 1010.8
20260905222131 77 222 0.0 0.0 0.00 0.43 0.43 88 1010.9
20260905221627 77 222 0.0 0.0 0.00 0.43 0.43 89 1011.0
20260905221124 77 222 0.0 0.0 0.00 0.43 0.43 88 1011.0
20260905220619 77 222 0.0 0.0 0.00 0.43 0.43 89 1011.1
20260905220115 77 222 0.0 0.0 0.00 0.43 0.43 89 1011.0
20260905215614 77 221 0.0 0.0 0.00 0.43 0.43 90 1010.9
20260905215110 76 221 1.0 1.0 0.00 0.43 0.43 91 1011.2
20260905214606 76 221 0.0 0.0 0.00 0.43 0.43 91 1011.2
20260905214106 76 212 1.0 1.0 0.00 0.43 0.43 92 1011.1
20260905213601 76 212 0.0 0.0 0.00 0.43 0.43 92 1011.2
20260905213056 76 226 1.0 1.0 0.00 0.43 0.43 92 1011.5
20260905212556 76 223 1.0 1.0 0.00 0.43 0.43 92 1011.4
20260905212056 76 223 0.0 0.0 0.00 0.43 0.43 93 1011.6
20260905211552 76 223 1.0 1.0 0.00 0.43 0.43 93 1011.4
20260905211047 75 223 0.0 0.0 0.00 0.43 0.43 93 1011.6
20260905210543 75 223 0.0 0.0 0.00 0.43 0.43 94 1011.7
20260905210038 75 223 0.0 0.0 0.00 0.43 0.43 94 1011.6
20260905205537 75 223 1.0 1.0 0.00 0.43 0.43 94 1011.6
20260905205036 75 223 1.0 1.0 0.00 0.43 0.43 93 1011.4
20260905204532 74 223 0.0 0.0 0.00 0.43 0.43 94 1011.7
20260905204027 74 223 0.0 0.0 0.00 0.43 0.43 94 1011.3
20260905203526 74 223 0.0 0.0 0.00 0.43 0.43 94 1011.3
20260905203021 74 223 0.0 0.0 0.00 0.43 0.43 93 1011.0
20260905202517 74 222 1.0 1.0 0.00 0.43 0.43 92 1011.1
20260905202012 74 223 1.0 1.0 0.00 0.43 0.43 93 1011.3
20260905201508 74 223 1.0 1.0 0.00 0.43 0.43 93 1011.4
20260905201007 73 223 0.0 1.0 0.00 0.43 0.43 93 1011.5
20260905200503 73 178 0.0 0.0 0.00 0.43 0.43 94 1011.9
20260905200002 73 177 1.0 1.0 0.00 0.43 0.43 95 1012.1
20260905195456 72 177 0.0 0.0 0.00 0.43 0.43 94 1012.1
20260905194952 72 177 1.0 1.0 0.00 0.43 0.43 94 1012.1
20260905194451 72 117 0.0 0.0 0.00 0.43 0.43 96 1012.0
20260905193946 71 117 1.0 1.0 0.00 0.43 0.43 95 1011.9
20260905193446 71 120 0.0 0.0 0.00 0.43 0.43 95 1011.9
20260905192941 71 184 1.0 1.0 0.00 0.43 0.43 95 1011.8
20260905192436 71 186 1.0 1.0 0.00 0.43 0.43 94 1011.6
20260905191932 71 187 1.0 1.0 0.00 0.43 0.43 93 1011.5
20260905191432 71 199 2.0 2.0 0.00 0.43 0.43 92 1011.7
20260905190931 71 99 1.0 2.0 0.07 0.43 0.43 92 1012.0
20260905190429 71 165 1.0 1.0 0.31 0.43 0.43 94 1011.5
20260905185928 71 169 1.0 1.0 0.85 0.42 0.42 93 1012.3
20260905185423 71 180 2.0 3.0 1.49 0.37 0.37 91 1012.6
20260905184922 72 218 1.0 1.0 1.72 0.30 0.30 90 1013.1
20260905184416 75 231 5.0 7.0 0.78 0.13 0.13 83 1013.4
20260905183915 83 270 6.0 7.0 0.00 0.00 0.00 67 1013.1
20260905183410 93 355 5.0 7.0 0.00 0.00 0.00 48 1013.1
20260905182905 94 257 1.0 1.0 0.00 0.00 0.00 48 1011.7
20260905182404 95 280 1.0 1.0 0.00 0.00 0.00 47 1011.4
20260905181900 96 355 1.0 1.0 0.00 0.00 0.00 46 1011.0
20260905181401 97 192 1.0 1.0 0.00 0.00 0.00 44 1011.4
20260905180859 98 234 1.0 2.0 0.00 0.00 0.00 43 1011.4
20260905180354 98 208 0.0 0.0 0.00 0.00 0.00 43 1011.8
20260905175844 97 228 2.0 2.0 0.00 0.00 0.00 42 1011.7
20260905175343 97 212 1.0 1.0 0.00 0.00 0.00 43 1012.0
20260905174839 96 195 2.0 2.0 0.00 0.00 0.00 45 1012.0
20260905174334 95 127 1.0 1.0 0.00 0.00 0.00 46 1012.0
20260905173830 97 20 0.0 1.0 0.00 0.00 0.00 44 1012.2
20260905173326 97 2 1.0 2.0 0.00 0.00 0.00 42 1012.2
20260905172826 97 345 2.0 2.0 0.00 0.00 0.00 43 1012.6
20260905172324 97 57 0.0 1.0 0.00 0.00 0.00 43 1012.6
20260905171820 98 8 1.0 2.0 0.00 0.00 0.00 44 1012.6
20260905171317 97 193 1.0 1.0 0.00 0.00 0.00 44 1012.6
20260905170813 96 212 1.0 1.0 0.00 0.00 0.00 43 1012.7
20260905170309 96 68 2.0 2.0 0.00 0.00 0.00 45 1012.9
20260905165807 97 153 1.0 1.0 0.00 0.00 0.00 44 1012.8
20260905165306 97 252 1.0 1.0 0.00 0.00 0.00 42 1012.8
20260905164803 97 325 1.0 1.0 0.00 0.00 0.00 43 1012.9
20260905164258 96 249 1.0 1.0 0.00 0.00 0.00 45 1013.0
20260905163754 96 20 1.0 1.0 0.00 0.00 0.00 45 1013.2
20260905163250 97 242 3.0 3.0 0.00 0.00 0.00 44 1013.4
20260905162746 96 104 1.0 1.0 0.00 0.00 0.00 44 1013.1
20260905162245 96 239 1.0 1.0 0.00 0.00 0.00 44 1013.4
20260905161740 97 305 1.0 1.0 0.00 0.00 0.00 42 1013.2
20260905161238 96 212 2.0 2.0 0.00 0.00 0.00 45 1013.6
20260905160737 96 222 1.0 1.0 0.00 0.00 0.00 45 1013.4
20260905160237 96 313 1.0 1.0 0.00 0.00 0.00 44 1013.5
20260905155732 95 188 1.0 1.0 0.00 0.00 0.00 47 1013.6
20260905155231 95 197 1.0 1.0 0.00 0.00 0.00 47 1013.5
20260905154725 95 225 0.0 0.0 0.00 0.00 0.00 47 1013.7
20260905154221 95 252 2.0 2.0 0.00 0.00 0.00 47 1013.7
20260905153716 95 227 2.0 2.0 0.00 0.00 0.00 46 1013.5
20260905153212 95 212 2.0 2.0 0.00 0.00 0.00 47 1013.6
20260905152707 94 179 1.0 1.0 0.00 0.00 0.00 52 1013.7
20260905152201 94 193 1.0 1.0 0.00 0.00 0.00 52 1013.6
20260905151701 93 198 1.0 0.0 0.00 0.00 0.00 53 1013.7
20260905151157 93 39 1.0 1.0 0.00 0.00 0.00 54 1013.8
20260905150652 93 294 1.0 1.0 0.00 0.00 0.00 54 1013.7
20260905150150 92 194 1.0 1.0 0.00 0.00 0.00 55 1013.9
20260905145648 92 205 1.0 1.0 0.00 0.00 0.00 56 1013.7
20260905145143 91 236 1.0 2.0 0.00 0.00 0.00 58 1013.7
20260905144637 91 210 1.0 1.0 0.00 0.00 0.00 58 1013.8
20260905144136 91 261 2.0 2.0 0.00 0.00 0.00 59 1013.8
20260905143632 90 200 1.0 1.0 0.00 0.00 0.00 60 1013.7
20260905143132 90 184 1.0 1.0 0.00 0.00 0.00 60 1013.7
20260905142630 89 228 2.0 2.0 0.00 0.00 0.00 62 1013.7
20260905142131 89 242 1.0 1.0 0.00 0.00 0.00 63 1013.6
20260905141630 89 254 1.0 2.0 0.00 0.00 0.00 62 1013.8
20260905141127 88 200 2.0 2.0 0.00 0.00 0.00 63 1013.9
20260905140622 88 196 1.0 1.0 0.00 0.00 0.00 65 1013.7
20260905140121 87 206 1.0 1.0 0.00 0.00 0.00 64 1013.8
20260905135616 86 190 1.0 1.0 0.00 0.00 0.00 68 1013.9
20260905135111 85 189 0.0 0.0 0.00 0.00 0.00 69 1013.8
20260905134606 85 185 1.0 1.0 0.00 0.00 0.00 70 1013.9
20260905134105 85 181 2.0 2.0 0.00 0.00 0.00 69 1014.1
20260905133601 85 215 1.0 1.0 0.00 0.00 0.00 69 1014.1
20260905133100 84 187 0.0 0.0 0.00 0.00 0.00 71 1014.1
20260905132600 84 187 1.0 1.0 0.00 0.00 0.00 71 1014.2
20260905132055 83 186 1.0 1.0 0.00 0.00 0.00 73 1014.1
20260905131550 83 183 1.0 1.0 0.00 0.00 0.00 74 1013.9
20260905131046 82 181 1.0 1.0 0.00 0.00 0.00 74 1013.9
20260905130544 83 170 2.0 2.0 0.00 0.00 0.00 73 1014.1
20260905130040 82 204 0.0 0.0 0.00 0.00 0.00 74 1014.1
20260905125539 81 207 0.0 1.0 0.00 0.00 0.00 75 1014.2
20260905125035 81 179 1.0 1.0 0.00 0.00 0.00 75 1014.2
20260905124531 80 179 1.0 1.0 0.00 0.00 0.00 77 1014.0
20260905124027 80 179 0.0 1.0 0.00 0.00 0.00 79 1014.2
20260905123523 79 179 1.0 1.0 0.00 0.00 0.00 80 1014.2
20260905123020 79 179 1.0 1.0 0.00 0.00 0.00 81 1014.1
20260905122519 78 179 1.0 1.0 0.00 0.00 0.00 82 1013.9
20260905122014 78 179 1.0 1.0 0.00 0.00 0.00 83 1013.9
20260905121514 78 179 1.0 1.0 0.00 0.00 0.00 83 1013.9
20260905121009 78 179 1.0 1.0 0.00 0.00 0.00 83 1013.9
20260905120508 77 179 0.0 0.0 0.00 0.00 0.00 84 1014.1
20260905120004 77 179 0.0 0.0 0.00 0.00 0.00 85 1014.0
20260905115503 77 179 0.0 0.0 0.00 0.00 0.00 86 1014.0
20260905114958 77 179 1.0 0.0 0.00 0.00 0.00 85 1013.8
20260905114457 76 179 0.0 0.0 0.00 0.00 0.00 87 1013.8
20260905113956 76 179 0.0 0.0 0.00 0.00 0.00 87 1013.8
20260905113452 75 179 0.0 0.0 0.00 0.00 0.00 88 1013.7
20260905112947 75 179 0.0 0.0 0.00 0.00 0.00 90 1013.8
20260905112442 74 179 0.0 0.0 0.00 0.00 0.00 92 1013.5
20260905111938 73 179 0.0 0.0 0.00 0.00 0.00 94 1013.2
20260905111438 73 179 0.0 0.0 0.00 0.00 0.00 95 1013.5
20260905110932 73 179 0.0 0.0 0.00 0.00 0.00 95 1013.4
20260905110431 73 179 0.0 0.0 0.00 0.00 0.00 95 1013.1
20260905105931 73 179 0.0 0.0 0.00 0.00 0.00 95 1013.0
20260905105426 73 179 0.0 0.0 0.00 0.00 0.00 94 1013.1
20260905104926 73 179 0.0 0.0 0.00 0.00 0.00 95 1012.9
20260905104422 73 179 0.0 0.0 0.00 0.00 0.00 94 1012.8
20260905103921 73 179 0.0 0.0 0.00 0.00 0.00 94 1012.9
20260905103417 73 179 0.0 0.0 0.00 0.00 0.00 94 1012.7
20260905102913 73 179 0.0 0.0 0.00 0.00 0.00 93 1012.9
20260905102409 73 179 0.0 0.0 0.00 0.00 0.00 93 1012.8
20260905101909 74 179 0.0 0.0 0.00 0.00 0.00 92 1012.8
20260905101408 74 179 0.0 0.0 0.00 0.00 0.00 92 1012.7
20260905100903 74 179 0.0 0.0 0.00 0.00 0.00 92 1012.7
20260905100359 74 179 0.0 0.0 0.00 0.00 0.00 92 1012.6
20260905095858 74 179 0.0 0.0 0.00 0.00 0.00 92 1012.6
20260905095353 74 179 0.0 0.0 0.00 0.00 0.00 92 1012.8
20260905094853 74 179 0.0 0.0 0.00 0.00 0.00 92 1012.7
20260905094348 74 179 0.0 0.0 0.00 0.00 0.00 91 1012.8
20260905093847 74 179 0.0 0.0 0.00 0.00 0.00 91 1012.8
20260905093343 74 179 0.0 0.0 0.00 0.00 0.00 91 1012.7
20260905092839 74 179 0.0 0.0 0.00 0.00 0.00 90 1012.7
20260905092338 74 179 0.0 0.0 0.00 0.00 0.00 90 1012.7
20260905091834 74 179 0.0 0.0 0.00 0.00 0.00 90 1012.6
20260905091333 74 179 0.0 0.0 0.00 0.00 0.00 90 1012.6
20260905090832 74 179 0.0 0.0 0.00 0.00 0.00 90 1012.9